Location: Molveno
(46.1500°N, 10.9667°E)
Time: 17:08:39
(UTC+00:00)

Cosmos 1328 Rocket - Pass Details

Date: 05 July 2020
Orbit: 601 x 627 km, 82.5° (Epoch: 10 August)

Event Time Altitude Azimuth Distance (km) Brightness Sun altitude
Rises 22:43:06 0° 352° (N) 2,866 8.6 -20.7°
Reaches altitude 10° 22:45:20 10° 354° (N) 1,957 7.3 -20.7°
Maximum altitude 22:49:39 74° 80° (E) 630 3.5 -20.8°
Enters shadow 22:50:27 56° 145° (SE) 716 3.5 -20.8°
